Tracking 26321 objects as of 27-Nov-2022
HD Live streaming from Space Station
objects crossing your sky now

STARLINK-4618

Track STARLINK-4618 now!
10-day predictions
STARLINK-4618 is classified as:


NORAD ID: 53735
Int'l Code: 2022-107AM
Perigee: 545.9 km
Apogee: 547.8 km
Inclination: 53.2 °
Period: 95.4 minutes
Semi major axis: 6917 km
RCS: Unknown
Launch date: September 5, 2022
Source: United States (US)
Launch site: AIR FORCE EASTERN TEST RANGE (AFETR)
aabbcc
Your satellite tracking list
Your tracking list is empty




NASA's NSSDC Master Catalog

Two Line Element Set (TLE):
1 53735U 22107AM  22331.33334491 -.00045268  00000-0 -28438-2 0  9990
2 53735  53.2159 243.5519 0001415  81.2409 326.5524 15.08844024 12909
Source of the keplerian elements: AFSPC